GW0349 Weather Reports


Display with metric or nautical units.
time (UTC)temp
F
wind
direction
speed
MPH
gust
MPH
rain 1hr
in
rain 24hr
in
rain mn
in
humidity
%
barometer
mb
20260504194556 76 197 8.0 13.0 0.00 0.00 0.00 36 1014.0
20260504193055 76 166 5.0 11.0 0.00 0.00 0.00 38 1014.2
20260504191554 75 192 8.0 13.0 0.00 0.00 0.00 38 1014.3
20260504190101 75 188 6.0 13.0 0.00 0.00 0.00 41 1014.5
20260504184604 74 241 4.0 14.0 0.00 0.00 0.00 40 1014.5
20260504183059 74 201 5.0 10.0 0.00 0.00 0.00 39 1014.9
20260504181600 73 215 3.0 10.0 0.00 0.00 0.00 41 1015.1
20260504180053 73 0 2.0 11.0 0.00 0.00 0.00 40 1015.1
20260504174557 73 188 6.0 9.0 0.00 0.00 0.00 40 1015.0
20260504173056 72 258 1.0 11.0 0.00 0.00 0.00 40 1015.2
20260504171557 71 0 2.0 9.0 0.00 0.00 0.00 40 1015.4
20260504081600 44 0 0.0 0.0 0.00 0.00 0.00 87 1016.2
20260504044549 53 310 1.0 4.0 0.00 0.00 0.00 67 1016.4
20260504043053 54 222 1.0 4.0 0.00 0.00 0.00 66 1016.1
20260504041551 54 233 2.0 4.0 0.00 0.00 0.00 65 1016.2
20260504040054 54 254 0.0 2.0 0.00 0.00 0.00 64 1016.3
20260504034607 55 0 0.0 2.0 0.00 0.00 0.00 63 1016.3
20260504033051 55 234 1.0 3.0 0.00 0.00 0.00 61 1016.5
20260504031550 56 192 0.0 1.0 0.00 0.00 0.00 61 1016.4
20260504030052 56 0 0.0 0.0 0.00 0.00 0.00 60 1016.4
20260504024554 56 0 0.0 0.0 0.00 0.00 0.00 58 1016.5
20260504023055 57 0 0.0 1.0 0.00 0.00 0.00 55 1016.4
20260504021554 58 174 0.0 2.0 0.00 0.00 0.00 54 1016.3
20260504020053 58 217 0.0 3.0 0.00 0.00 0.00 53 1015.9
20260504014602 58 148 1.0 3.0 0.00 0.00 0.00 52 1015.7
20260504013053 59 136 1.0 2.0 0.00 0.00 0.00 51 1015.6
20260504011558 60 218 1.0 3.0 0.00 0.00 0.00 47 1015.6
20260504010057 60 183 0.0 2.0 0.00 0.00 0.00 47 1015.3
20260504004551 61 159 0.0 4.0 0.00 0.00 0.00 45 1015.2
20260504003053 62 138 1.0 3.0 0.00 0.00 0.00 43 1015.2
20260504001554 63 165 0.0 3.0 0.00 0.00 0.00 40 1015.1
20260504000056 64 202 1.0 5.0 0.00 0.00 0.00 38 1015.0
20260503234553 65 215 3.0 7.0 0.00 0.00 0.00 35 1015.0
20260503233054 66 211 3.0 9.0 0.00 0.00 0.00 35 1014.8
20260503231550 67 236 4.0 8.0 0.00 0.00 0.00 33 1014.7
20260503230052 67 232 4.0 11.0 0.00 0.00 0.00 34 1014.9
20260503224553 67 232 5.0 9.0 0.00 0.00 0.00 34 1015.0
20260503223053 67 186 5.0 10.0 0.00 0.00 0.00 35 1015.0
20260503221553 68 229 3.0 8.0 0.00 0.00 0.00 35 1015.0
20260503220054 67 206 5.0 11.0 0.00 0.00 0.00 36 1015.2
20260503214552 67 185 5.0 11.0 0.00 0.00 0.00 35 1015.4
20260503213107 67 171 4.0 11.0 0.00 0.00 0.00 36 1015.6
20260503211554 67 184 6.0 12.0 0.00 0.00 0.00 33 1015.8
20260503204554 66 264 8.0 13.0 0.00 0.00 0.00 33 1016.2
20260503203102 66 226 5.0 21.0 0.00 0.00 0.00 32 1016.3
20260503201555 66 230 8.0 14.0 0.00 0.00 0.00 31 1016.6
20260503200058 66 260 4.0 10.0 0.00 0.00 0.00 33 1016.8